[Box ] NYY @ MIN (ALDS 3)

看板 Ny-Yankees
作者
時間
留言 296則留言,99人參與討論
推噓 183  ( 183推 0噓 113→ )
Yankees 5,Twins 1 ╭───────┬──────────────────┬──────╮ 2019/10/07 ∣ 1 2 3 4 5 6 7 8 9 ∣ R H E ∣ ├───────┼──────────────────┼──────┤ NYY (3-0) ∣ 0 1 1 0 0 0 1 0 2 ∣ 5 10 0 ∣ ├───────┼──────────────────┼──────┤ MIN (0-3) ∣ 0 0 0 0 0 0 0 1 0 ∣ 1 9 1 ∣ └───────┴──────────────────┴──────┘   WP: Green (W, 1-0)  LP: Odorizzi (L, 0-1) SV: Chapman (S, 1) NY Yankees AB R H RBI BB SO LOB AVG LeMahieu, 1B 5 0 0 0 0 2 3 .286 Judge, RF 3 0 0 0 0 1 1 .333 Gardner, CF 4 0 1 1 0 2 1 .250 Encarnacion, DH 4 0 0 0 0 0 2 .308 Stanton, LF 3 0 1 0 0 1 0 .167 Maybin, LF 1 1 1 1 0 0 0 .333 Torres, 2B 4 3 3 1 0 0 1 .417 Sanchez, C 3 0 1 0 1 1 1 .125 Gregorius, SS 4 0 2 2 0 1 1 .400 Urshela, 3B 4 1 1 0 0 1 3 .250 Totals 35 5 10 5 1 9 13 BATTING 2B: Urshela (1, Odorizzi); Torres 2 (3, Rogers, Romo) HR: Torres (1, 2nd inning off Odorizzi, 0 on, 1 out) Maybin (1, 9th inning off Romo, 0 on, 1 out) TB: Gardner; Gregorius 2; Maybin 4; Sanchez; Stanton; Torres 8 RBI: Gregorius 2 (6); Maybin (1); Gardner (3); Torres (4) 2-out RBI: Gardner Runners left in scoring position, 2 out: LeMahieu; Encarnacion GIDP: Torres; Urshela Team RISP: 3-for-10 Team LOB: 5 BASERUNNING SB: Torres (2, 3rd base off Romo/Garver) FIELDING DP: (Torres-LeMahieu) Minnesota AB R H RBI BB SO LOB AVG Kepler, CF 4 0 0 0 1 1 4 .000 Polanco, SS 5 0 1 0 0 0 5 .273 Cruz, DH 4 0 0 0 1 1 5 .200 Rosario, RF 4 1 3 1 0 0 2 .308 Garver, C 3 0 0 0 1 2 2 .167 Arraez, 2B 4 0 2 0 0 0 0 .455 Sanó, 3B 4 0 0 0 0 2 4 .083 Gonzalez, 1B-LF 4 0 1 0 0 1 4 .273 Cave, LF 2 0 1 0 0 1 3 .250 Cron, PH-1B 1 0 1 0 1 0 0 .200 Totals 35 1 9 1 4 8 29 BATTING 2B: Rosario (1), Arraez (4) HR: Rosario (1, 8th inning off Britton, 0 on, 0 out) TB: Arraez 3; Cave; Cron; Gonzalez; Polanco; Rosario 7 RBI: Rosario (1) Runner left in scoring position, 2-out: Cruz 2; Rosario; Gonzalez; Garver; Cave 2 GIDP: Cruz Team RISP: 1-for-12 Team LOB: 11 FIELDING E: Garver (1, catcher interference) DP: 2 (Polanco-Arraez-Gonzalez; Sano-Arraez-Gonzalez) NY Yankees IP H R ER BB SO HR ERA Severino 4.0 4 0 0 2 4 0 0.00 Kahnle 0.2 1 0 0 0 0 0 3.86 Ottavino 0.0 0 0 0 1 0 0 0.00 Green (W, 1-0) 1.1 2 0 0 0 1 0 0.00 Britton (H, 2) 1.1 1 1 1 0 0 1 3.86 Chapman (S, 1) 1.2 1 0 0 1 3 0 0.00 Totals 9.0 9 1 1 4 8 1 Minnesota IP H R ER BB SO HR ERA Odorizzi (L, 0-1) 5.0 5 2 2 0 5 1 3.60 Rogers 2.0 2 1 1 0 2 0 4.50 Romo 1.1 2 2 2 1 0 1 9.00 May 0.2 1 0 0 0 2 0 0.00 Totals 9.0 10 5 5 1 9 2 New York Yankees @ Minnesota Twins: Oct 07, 2019 Venue: Target Field Attendance: 41,121 Duration: 4:02 Weather: 62 degrees, Clear Wind: 5 mph, R to L -- ※ 發信站: 批踢踢實業坊(ptt.cc), 來自: 114.36.244.213 (臺灣) ※ 文章網址: https://www.ptt.cc/bbs/NY-Yankees/M.1570510669.A.6DD.html
1FTCPipv6: 謝謝 掰掰 10/08 12:58
2Ffff222lf2: 爽 禁 10/08 12:58
3Ffff222lf2: 晉級 10/08 12:58
4FPrettyFace: 推光速BOX 10/08 12:58
5Fdreamysky: 百勝悲情城城好朋友 10/08 12:58
6FGrammy: 城城打線真夠悲慘 10/08 13:02
7Fdevilsky: 今天KO要請綠吃大餐啊 2個上來搞笑 10/08 13:02
8FJBLs: 沒有自己送出去 整場又被我們NP多次 看看那LOB... 10/08 13:02
9FRogerWaters: 洋基今天守備一千分, 雙城整個傻眼 10/08 13:03
10Flyk191947: 爽 10/08 13:03
11FJJJeff: JBL大作這盒子很爽吧! 10/08 13:03
12FJBLs: 爽死了 今天代班 系列賽開門結尾都我 舒服 10/08 13:04
13Fryeo621: 推 10/08 13:06
14Fwindtemple: 讚讚讚XD 10/08 13:15
15FPTHMAN: 讚 10/08 13:15
16Faweijin: 推 晉級! 10/08 13:18
17Fkobei008: 謝謝雙城!!! 10/08 13:23
18Faha8877: Let’s fxxking gooooo 10/08 13:24
19Frenmin: 三場下來NYY得23分(5HR)MIN得7分(4HR) 橫掃也是剛好 10/08 13:25
20Fcbahsasn7250: 爽推個 10/08 13:25
21Fdecorum: 城城季賽101勝 內容卻有點虛 對戰五成以上球隊32-37 10/08 13:30
22Fbestteam: 九局差點嚇死人 10/08 13:30
23Fdecorum: 是今年進季後賽球隊中最差的 10/08 13:30
24Fnomo1616: 棒棒 10/08 13:35
25Fthb96300: 光芒盡量耗太空人多點戰力 10/08 13:42
26Fgrizz233: 推! 10/08 13:45
27Fsammy1031: 贏球就是爽!!! 10/08 13:45
28Fg4c04: 明天幫光芒加油 10/08 14:05
29Fjetergood: 樂透幾點開獎? 10/08 14:06
30FELF007: 樂透今晚開獎 10/08 14:21
31Fyoungluke: 接下來就替補問題了 這系列野手的輪換很固定 10/08 14:30
32Fyoungluke: Stanton-Maybin 其他就沒看到人了 10/08 14:31
33Fyoungluke: 投手是只有Cessa沒用 10/08 14:32
34Fnoahlin: 看CC傷勢有沒有好一點 不然應該就原班人馬吧 10/08 14:43
35Fnoahlin: Ford不帶有點可惜就是 10/08 14:43
36Fcommunique: Voit從頭到尾好像沒出現過? 10/08 14:44
37Fskyline0308: 這場完全是攻守俱佳,美技連連啊 10/08 14:47
38Frichard1003: 感謝城城,Didi都熱起來了 10/08 15:03
39Fcurtismaniac: 希望光芒能再把Cole打出來耗掉 最好是能連過JV+Cole 10/08 16:15
40Faccjm2440: 我們打線沒有需要代打的 10/08 16:35
41Fwill0822: 看高光,這場的theeeeeee yankees win特別有感 10/08 17:03
42Fy800122155: Voit連上來代打試試手感都不行嗎.. 10/08 17:07
43FRogerWaters: EE打得不錯幹嘛換Voit 10/08 17:55
44Fr5566ex: 寧願左打Ford拉進名單 10/08 20:27
45Fdinos: G4和ALCS G1中間休三,沒打G5的話就V和Cole對調 10/08 20:29
46Fdinos: 希望來個G5打個二三十局 10/08 20:30
47Fnoahlin: 有可能被代打的反而是Urshela 然後讓DJLM去3B 10/08 20:37
48Frichard1003: 幫光芒加油一下,最好拖到G5 10/08 21:05
49Fluaniu: 美聯冠軍賽什麼時候呢?? 10/08 21:51
50Fcharlie01: 台灣時間週日早上G1 10/08 22:12
51FRogerWaters: Chapman慶祝時手指被瓶子丟到, 包了起來, 希望沒事 10/08 22:28
53Fmikachen: 這隊不要再受傷了喔 10/08 22:35
54Fcharlie01: 應該沒事 現金人說他笑超爽還找他拳碰拳 10/08 22:36
55Fcharlie01: 不過真的很蠢 10/08 22:36
56Faccjm2440: 乾 可以不要這樣嗎XD 10/08 22:42
57Fskyline0308: 還是左手=.= 是覺得洋基用受傷在集氣就對了 10/08 22:49
58Fen0308: 個人希望光芒多加油 太空人能閃則閃 很恐怖 10/08 22:55
59Feric2003002: Britton應該沒事吧? 10/09 00:12
60FVanquze: 用HR尻爆太空三巨投 怕什麼 10/09 01:39
61Floveandy58: Bri沒事吧 10/09 06:56
62Frichard1003: wow,V第一局就炸了 10/09 07:39
63FMovice: V中第一局炸裂 10/09 07:40
64Fnomo1616: 休三天炸了 10/09 07:40
65Fjeffchen106: 我希望Verlander投多一點再爆 10/09 07:40
66Fyankees733: V中被炸,搞不好真的逼到第五戰 10/09 07:40
67Fjeffchen106: 讓他消耗多一點球數 10/09 07:40
68Fjeffchen106: 希望不要換,至少逼他80球以上 10/09 07:41
69Fmecheers: 炸掉中三日的V中,嘿嘿 10/09 07:46
70Falfonso4546: 太早換有可能G1還是他 10/09 07:52
71Falfonso4546: 如果他們有G5的話 10/09 07:52
72Fnowistzki: 太空人牛棚... 我覺得教練還是會繼續擺V中 10/09 07:58
73Fdiablooo: 一早看到0:3還蠻驚訝的 10/09 08:19
74Fthb96300: V居然會炸掉 不敢相信... 10/09 08:21
75Fyoungluke: 光芒贏了也是回到原點打Cole 不過先看爽XD 10/09 08:22
76Fdiablooo: 哈哈 真的爽 10/09 08:23
77Fthb96300: V中被打一隻2B了 10/09 08:23
78Fdiablooo: 發球機模式啟動 10/09 08:24
79FGrammy: 光芒好朋友加油 10/09 08:25
80Flawrance0618: 如果太空人5戰晉級的話,輪值會變成葛蘭基-V-Cole 10/09 08:27
81Flawrance0618: 嗎 10/09 08:27
82Flawrance0618: 主審被V中影響到了 10/09 08:29
83Fnoahlin: 這轉傳太神了 10/09 08:42
84Faaron880221: BC都沒事 10/09 08:51
85Fjoeyer: V中頂多撐五局 最好拖到G5 10/09 08:55
86Fdevilsky: 下去了 10/09 08:55
87Fmikachen: 光芒會連過Greinke跟V中嗎!? 10/09 08:55
88Fmecheers: Rays好威,希望洋基也可以把V中打下去 10/09 08:55
89Fmelman87: 光芒直接三連勝更棒 10/09 08:57
90Fmecheers: 現在覺得還好最後一個禮拜一直輸才可以遇雙城XD 10/09 09:03
91Fyankees733: 如果是我們第一輪碰光芒,搞不好也打的很辛苦 10/09 09:04
92FGrammy: 沒錯 當初就說 如能對上雙城是天佑洋基 10/09 09:08
93Fmecheers: 光芒,運動家,太空人我都怕一輪遊,還好沒有XD 10/09 09:11
94Feric2003002: 進季後賽沒有對手好打啦 10/09 09:14
95Fypw: 當初風氣好像都在追聯盟一跟美聯一吧 10/09 09:15
96Fgnckt: 也不用把雙城講成這樣吧,昨天明明靠一堆美技才贏下 10/09 09:16
97Fmecheers: 又沒有貶低雙城的意思,今年打其他三隊就是很拚阿 10/09 09:17
98Feric2003002: 賽前也是預測五五波…希望下輪打線還可以持續發揮 10/09 09:23
99Fysyeang: 色人今天真背 10/09 09:31
100Feon4: 空光有G5機率越來越高了 10/09 09:44
101Fysyeang: 色人破蛋啦 色人反攻能力聯盟頂先的 10/09 10:18
102FalpacaHong: 光芒牛棚也是聯盟頂尖的 10/09 10:25
103Feric2003002: 剩一局反攻機會,揪竟有沒有G5? 10/09 10:38
104FMovice: 光芒開劇場 10/09 10:50
105Fnomo1616: 芒芒加油啊 10/09 10:50
106Fyoungluke: 壓Snell了 10/09 10:51
107FGrammy: 光芒加油 抓出局數 10/09 10:53
108Fgenteme: 好刺激 10/09 10:54
109FLaoDa5815566: 幹老查慶功被砸傷是怎樣啦QQQQQ 10/09 10:54
110FGrammy: KKKKKK 10/09 10:55
111Fwinds20151: M1 10/09 10:55
112FMovice: 光芒贏了 10/09 10:57
113Fnomo1616: 哈哈哈有G5 10/09 10:58
114FGrammy: 爽 10/09 10:58
115Fwinds20151: 爽爽der 10/09 10:58
116Feric2003002: G5 讚讚 10/09 10:58
117FSechslee: 讚讚 10/09 10:59
118Fjimmy007: 隔壁竟然2:2了 10/09 10:59
119Fvencil: 讚 互耗最好 10/09 11:00
120Fdarlene917: 燒吧燒吧,通通燒光!!!! 10/09 11:01
121Fg4c04: V中被光芒了 爽 10/09 11:01
122Fkuluya997: 水啦 這樣就對了 互相傷害 10/09 11:02
123FYoussef404: G5麻煩打個18局 10/09 11:03
124Fwsan: 不論 LCS 對手是誰的利多 球員能在家坐看雙虎鬥挺好 10/09 11:08
125Fsammy1031: 哈,光芒贏了,期待太空人被翻XDD 10/09 11:13
126Fjeffchen106: Chapman 說他的手已經沒事了。今天會上健身房做全套 10/09 11:21
127Fjeffchen106: 的訓練 10/09 11:21
128Fwarchiefdodo: 至少不會在第一場碰到cole了 10/09 11:24
129Fj8246000: 海巡到太空人版 球迷講的好像已經打包回家一樣 哈哈 10/09 11:24
130Fappshjkli: 燒啊 看人打生死戰超爽der 10/09 11:35
131Fjimmy781126: 光芒加油 血戰g5!! 10/09 12:34
132Fjoe0726: 光芒把太空人Verlander了 10/09 12:46
133Fmikachen: 是說為什麼Hicks突然(自己覺得)可以上場了? 10/09 12:53
134Farosshyi: 只有我們直接晉級真是超爽,而且其他都驟死戰 10/09 12:55
135FCKluber: Hicks有覺得自己可以上場??我錯過了什麼 10/09 13:49
136Fblacksom: 有人跟我一樣已經把2009冠軍系列拿出來為洋基加油嗎 10/09 13:59
137Fwsan: 排進 LCS 名單再說 Boone 之前說 Hicks 該不用手術 10/09 14:08
138Fwsan: 然後在 Tampa 努力中 接著就聽到 Hicks 說準備好了 10/09 14:09
139Fwsan: 就先當是精神喊話要為球隊盡一份力吧 什麼都說不準 10/09 14:09
140Falfonso4546: 空迷真的超哀兵XD 各種不舒服 10/09 14:33
141Fnoahlin: Hicks回來也沒位置吧 EE卡著DH 99就一定要LF 10/09 14:34
142Fnoahlin: 而且怎麼可能兩個月沒打一回來的狀態就可以打季後賽 10/09 14:35
143Fnoahlin: 如果只是要取代Maybin 4th of應該是不用勉強 10/09 14:35
144Fy800122155: Voit連代打都沒機會 Hicks突然回來怎麼可能讓他上? 10/09 15:08
145Fdecorum: 連復健賽都沒打 不可能給他佔寶貴的季後賽名額 10/09 15:55
146Fperry100803: Hicks的覺得自己能上...通常都不太準XD 10/09 16:27
147Fysyeang: feel good又來了 10/09 16:28
148Fypw: CF是真的只剩園丁,也不是沒機會啦,跟1B情況不同。 10/09 16:34
149Fwsan: Maybin 可以守 CF 10/09 16:41
150Fwsan: Hicks 主要就是跟 Maybin 定位重疊 兩人都有傷 10/09 16:42
151Fwsan: 守備都不錯 打擊 Maybin 有疑慮 但也敲了一支出去 10/09 16:43
152Fwsan: Hicks 恢復狀況與回來的打擊都問號 放名單機率不大 10/09 16:43
153Fwsan: 除非... 實在不想再有那個除非了...... 10/09 16:44
154Faccjm2440: 缺那麼久沒實戰還是算了吧 10/09 17:29
155Falfonso4546: 就算狀況回來Hicks今年打得也沒多好 10/09 18:38
156Fappshjkli: EE也休很久阿 10/09 19:11
157FJJJeff: Hicks自己說過他需要打席來找手感 10/09 20:50
158FAYLiu: 士官長現在表現都比Hicks好 10/09 21:03
159FAYLiu: 沒理由放士官長板凳 10/09 21:03
160Ff9torres: Maybin開始敗人品了…… 10/10 01:18
161Ff9torres: https://imgur.com/fLAdUbE 10/10 01:21
162FELF007: 沒餅那個都刪了 而且事主回得很好笑XD 10/10 01:28
163Fhoukevin: 這句話有很敗人品嗎 10/10 02:22
164Fysyeang: 我有看錯嗎 第一局打10分 10/10 06:00
165Fiambiaggi: 勇士也太慘了吧,還在主場欸 10/10 07:04
166FGrammy: 他被反嗆比較好笑 酒駕臉腫腫喔 10/10 08:40
167FalpacaHong: McCann退休,感謝他在洋基的貢獻 10/10 09:18
168FGrammy: 道奇GG 10/10 12:24
169Fkings107: 道奇....XD 10/10 12:26
170Fgnckt: 笑死道奇要一輪遊了 10/10 12:27
171Fyoungluke: 真的要笑死了 10/10 12:27
172Fwinds20151: 今年國聯太刺激了~~ 10/10 12:28
173Fjackwula9211: 道奇的調度...... 10/10 12:28
174Fappshjkli: 笑死 10/10 12:31
175Fyankees733: 道奇掰,明天希望宇宙人也掰 10/10 12:33
176FPTHMAN: 道奇輸了 希望明天太空人跟上道奇腳步 10/10 12:43
177Fappshjkli: 道奇掰掰掰 10/10 12:43
178Fnomo1616: 每年都在看蘿蔔絲搞笑,呵呵 10/10 12:43
179Fatmmaxing: 百勝球隊掛了兩之 明天太色發抖中 10/10 12:45
180FGrammy: 太空人不會翻啦 還是要靠自己打穿V中 永遠的大魔王 10/10 12:48
181Fjeffchen106: 但是我覺得光芒很會打一場定生死的比賽 10/10 12:55
182Fjeffchen106: 他們上一場假先發的那些牛棚全部都休息一天了 10/10 12:55
183Fjeffchen106: 明天他們全體都可以上 10/10 12:56
184Fgrizz233: 國聯要注意的就是紅雀 很會打季後賽 國民則是有雙王 10/10 13:00
185Fgrizz233: 牌 10/10 13:00
186Fwsan: 回頭看 Boone 換 OK 的果決 就是不想出現任何意外 10/10 13:03
187Fatmmaxing: Boo換得超果決 感謝有奢侈鐵牛棚 10/10 13:05
188Fcharlie01: 國聯沒什麼好注意的 現在要注意的是ALCS 10/10 13:11
189Fappshjkli: 沒什麼好注意阿 明天開電視看戲而已 10/10 13:15
190Fcharlie01: 明天可以注意一下 這輪已經確定要打了XDD 10/10 13:19
191Fyoungluke: 看一下Morton/Greinke有沒有上 不然他們應該G1 10/10 13:19
192Fappshjkli: Greinke不太可能上,Morton倒是真的有機會上 10/10 13:23
193Fyankees733: Morton有機會上啦,不過前提是光芒能突破Cole 10/10 13:27
194Fwsan: 很難想像三張 ACE 會同時倒下 但還是希望光芒振作點 10/10 13:31
195Fmightymouse: 看完蘿蔔的調度,反觀我們家布總牛棚調度真的行啊 10/10 14:07
196Faccjm2440: 對比道奇羅伯 我們的是緊張兮兮一下就換人XD 10/10 14:12
197Fwarchiefdodo: 其它輪的比賽真的不死也半殘 好累~~ 10/10 14:18
198Feric2003002: 期待ALCS美東內戰 10/10 14:19
199Fdecorum: 明天一場決生死 若戰況膠著 能用的都會上 大幅領先 10/10 14:30
200Fdecorum: 才有保留戰力的奢侈 10/10 14:31
201FMovice: https://i.imgur.com/zhvIuiA.jpg 光芒QQ 10/10 14:42
202Fysyeang: M大..哈哈 10/10 14:52
203Fysyeang: 看了再看 有點假 10/10 14:55
204Fwsan: 這預測最扯的是光芒色人這組合 不知從何推論出來的 10/10 15:06
205Fdinos: 希望明天可以看到二十局時還在0:0僵持 10/10 23:09
206Fjeffchen106: 請問季後賽25人名單如果有人受傷,可否直接拉名單 10/11 07:02
207Fjeffchen106: 外的人進來? 10/11 07:02
208Fwsan: 可以 但只能投手換投手 拉該守備位之野手替換 10/11 07:14
209Fwsan: 並且受傷的球員不得參加下一輪的系列戰 10/11 07:14
210Fwsan: https://atmlb.com/2IIuCU2 10/11 07:15
211Fs711982: 我咋覺得很高的機會會吧Hicks帶進CS , Maybin off . 10/11 07:18
212Fs711982: .... 10/11 07:18
213FAYLiu: 光芒大勢已去 10/11 07:26
214Fappshjkli: 準備打太空人惹 YO 10/11 07:27
215Fysyeang: 我相信 太空人再怎麼會飛 也飛不出太陽系 10/11 07:28
216Flyk191947: 看來光芒賭錯了 10/11 07:30
217FAYLiu: 光芒為什麼不換投 10/11 07:30
218Fwinds20151: 光芒加油,希望能讓太空人一輪遊 10/11 07:38
219Fptt2005: 光芒這局不能再失分了 pop out 1out 很好 10/11 07:46
220Fptt2005: 太色人 2out 光芒Glasgow 回魂了 10/11 07:48
221Fysyeang: 上Snell 10/11 08:04
222Fcharlie01: 看下去XD 10/11 08:52
223Flawrance0618: 看來要跟宇宙人打了 10/11 09:11
224Fjoeyer: V中不知道會不會為了第五戰能上又中三日 10/11 09:34
225Fcharlie01: 不會 10/11 09:45
226Fysyeang: 把Cole操壞吧.. 10/11 09:51
227Fmecheers: 看來只有我基能夠嚇嚇他們 10/11 09:51
228Frainy0312: 還好第一場不用對Cole 10/11 09:52
229Fmightymouse: 要感謝光芒撐了五場把Cole用掉 10/11 09:53
230Fjackwula9211: Cole真的鬼神 10/11 09:53
231Fhunder31: cole真的太強了.... 10/11 09:53
232Faccjm2440: 但下一輪G3就可能會看到他了 10/11 09:55
233Fjoeyer: 真的要謝謝光芒 希望只需要面對Cole一場 10/11 09:55
234Fdoa2: 多得一分保險分,看來cole不會硬投九局了 10/11 09:56
235Fthb96300: 光芒撐到現在已經很棒了 10/11 09:56
236Fmattpikachu: b2b了 要打太色了 10/11 09:59
237FGrammy: 真的 能連續幹掉V中跟葛林基 10/11 09:59
238Fjoeyer: G3上就算中三日也要G6才能再上 已經很好了 10/11 10:00
239Fmikachen: 投手強是預料中 太空打線回神比較恐怖 10/11 10:00
240Fnoahlin: 除非五場內解決 不然G6G7還是V跟Cole 10/11 10:02
241Fnoahlin: 順序對調而已 之前打V都很慘 10/11 10:02
242Fcharlie01: 前六戰會遇到一次Cole 兩次V 其他三場其他人 10/11 10:02
243FGrammy: hicks: 幹 才回來就要我打這兩個的球 其實我還沒好 10/11 10:03
244Fnomo1616: 打從心裡尊敬光芒 10/11 10:04
245Fcharlie01: 我們要把它當成六場系列賽來打 10/11 10:04
246Fyankees733: 希望能突破V中,前年被吃的死死的 10/11 10:05
247Fysyeang: 希望四場解決色人 10/11 10:07
248Feric2003002: Houston,我們又來了 10/11 10:21
249FSechslee: 加油讓老爹預測成真 10/11 10:21
250Feric2003002: G1 是Z魔神 G2 V中? 10/11 10:22
251Fnomo1616: 復仇者洋基來了 10/11 10:22
252Ftaxlaw1991: 感謝光芒讓洋基G1/2不是Verlander&Cole 10/11 10:25
253Feric2003002: 還是很硬…就看我們能不能在客場拿下勝利了 10/11 10:27
254Fcharlie01: G1 Z、G2 V、G3 Cole、G4 others、G5 Z 10/11 10:29
255Fcharlie01: 在家的G4、G5變成絕對要拿的兩場 10/11 10:30
256Fcharlie01: (就先不考慮橫掃這種可能了......) 10/11 10:30
257Faccjm2440: 至少要打贏V或cole一場才能晉級.. 10/11 10:38
258FAYLiu: 那我們投手呢 第四戰是誰 10/11 10:40
259Fwarchiefdodo: Happ?(抖...)這時就要怪GermanQQ 10/11 10:43
260Fntumtw: 我覺得突破V中有機會 大膽預測4:1 Yankees Win~ 10/11 10:52
261Ftmaster: 想問芒果會比Lyons差嗎 10/11 10:53
262Ftmaster: 近況的話 10/11 10:53
263Fmightymouse: Happ 9月很強喔 10/11 11:03
264FOoyaoO: 不用考慮這麼多吧 除非受傷 不然就是一定會碰到 10/11 11:08
265Fmecheers: Hicks把ALCS當復健賽嗎?-_- 10/11 11:09
266Frainy0312: CC這輪還是後援嗎 比起Happ我是比較相信CC 10/11 11:18
267Fappshjkli: 那EE是把ALDS當復健賽嗎 10/11 11:23
268Frainy0312: 這個系列賽應該是集K換全壘打吧...(怕 10/11 11:25
269Feric2003002: Cole是不是賽後被訪問要面對洋基的心情?XD 10/11 11:35
270Feric2003002: G1 Paxton G2田中 G3Sevy? 10/11 11:37
271Fcharlie01: G4應該是open+Happ+CC+後續牛 10/11 11:39
272Fmightymouse: Hicks下去的未必一定是Maybin,也可能是Voit 10/11 11:39
273Fcharlie01: 不過要正常出牌前提是前三戰投手調度都不能崩 10/11 11:39
274Fcharlie01: 這在面對宇宙人會是個很大的考驗 10/11 11:40
275Fcharlie01: 再說一次失去German和大B接下來很可能會很痛 10/11 11:40
276Fcharlie01: 只能自己祈禱不要有感覺到的那天XD 10/11 11:41
277Feric2003002: 我們打線也要有突破,休4天了 10/11 11:42
278Fyankees733: 田中其實可以投G1,G5還在主場 10/11 11:45
279FHanklaw: 希望太空人不要又破解暗號之類的瞬間打爆 10/11 11:46
280Feric2003002: 田中/paxton主場成績都比較好 10/11 11:46
281Fappshjkli: German那個莫名其妙就禁賽了 嗯 10/11 11:47
282FHanklaw: 那個禁賽實在是......不是還在調查中嗎 可以直接這 10/11 11:50
283Ftaxlaw1991: Happ和CC當然是Happ CC最近頂多吃2局而已...... 10/11 13:02
284Ftaxlaw1991: 調查程序中不能出賽 都讓人懷疑官方刻意拖程序拱洋 10/11 13:03
285Ftaxlaw1991: 基對手了 10/11 13:03
286Fypw: 本季從頭到尾就沒什麼再補強力先發的意念,現有的可 10/11 13:15
287Fypw: 用之投就這樣,既然都走到這裡就看這堆牛能發揮到什 10/11 13:15
288Fypw: 麼程度了,就算德國弟跟大B能用也不是很期待能封鎖 10/11 13:15
289Fcharlie01: 那要看你對封鎖的定義是什麼了 10/11 14:15
290Fcharlie01: 季後賽是總體戰 每多/少一個可用之兵都可能造成關 10/11 14:18
291Fcharlie01: 鍵影響 10/11 14:18
292Fappshjkli: 老實說German比較有影響啦 Betances今年就跟沒出現 10/11 14:19
293Fappshjkli: 過一樣 有差嗎( 10/11 14:19
294Fcharlie01: 他如果有今年唯一一場投兩個K兩個看起來的command 10/11 15:20
295Fcharlie01: 看起來可以用啊 雖然兩個打席做不得什麼參考啦XD 10/11 15:21

ny-yankees 熱門文章

[討論] 先發陣容
Ny-Yankees skyline0308 54留言 2019-10-16 23:56:36
[Live] HOU @ NYY (ALCS 3)
Ny-Yankees wsan 1480留言 2019-10-16 03:11:02

最新熱門文章

[心得] JT欠我一戶陶朱隱園
Lol ro77289 16留言 2019-10-18 02:31:16
[發錢] 賀!恭喜LMS再創佳績
Lol lie0114 183留言 2019-10-18 02:31:45
Re: [閒聊] Hana神奇的存在
Lol minicg47482 10留言 2019-10-18 02:32:21
[閒聊] spy可以ahq也可以吧
Lol Tohkachan 16留言 2019-10-18 02:35:47
[閒聊] Nash
Lol winds852 33留言 2019-10-18 02:47:58
[問題] 有誰真的是反串的?
Lol envy116 34留言 2019-10-18 02:56:08
[閒聊] JT最後一場是心態繃了嗎
Lol Carsr 17留言 2019-10-18 02:58:48
Re: [閒聊] FPX JT 的BP
Lol cocoinin 50留言 2019-10-18 02:59:14